W5TUX Weather Reports


time (UTC)temp
C
wind
direction
speed
KPH
gust
KPH
rain 1hr
cm
rain 24hr
cm
rain mn
cm
humidity
%
barometer
mb
20260509053654 19 209 0.0 0.0 0.00 0.00 0.00 99 1015.7
20260509053150 19 177 0.0 0.0 0.00 0.00 0.00 99 1015.6
20260509052648 19 218 0.0 0.0 0.00 0.00 0.00 99 1016.0
20260509052145 20 218 0.0 0.0 0.00 0.00 0.00 99 1015.7
20260509051643 19 241 0.0 0.0 0.00 0.00 0.00 99 1016.0
20260509051140 19 217 0.0 0.0 0.00 0.00 0.00 99 1015.8
20260509050637 19 227 0.0 0.0 0.00 0.00 0.00 99 1016.0
20260509050133 18 214 0.0 0.0 0.00 0.00 0.00 99 1016.2
20260509045631 19 225 0.0 0.0 0.00 0.00 0.00 99 1016.3
20260509045128 19 300 0.0 0.0 0.00 0.00 0.00 99 1016.1
20260509044625 18 320 1.6 1.6 0.00 0.00 0.00 99 1015.9
20260509044122 19 140 0.0 0.0 0.00 0.00 0.00 99 1015.5
20260509043618 19 103 0.0 0.0 0.00 0.00 0.00 99 1015.3
20260509043114 19 234 0.0 0.0 0.00 0.00 0.00 98 1015.1
20260509042611 19 171 0.0 0.0 0.00 0.00 0.00 98 1014.9
20260509042106 19 89 0.0 1.6 0.00 0.00 0.00 98 1015.0
20260509041604 19 194 0.0 0.0 0.00 0.00 0.00 98 1015.1
20260509041101 19 115 0.0 0.0 0.00 0.00 0.00 98 1015.2
20260509040600 19 344 1.6 1.6 0.00 0.00 0.00 98 1014.6
20260509040056 19 218 6.4 9.7 0.00 0.00 0.00 98 1014.0
20260509035553 19 187 3.2 4.8 0.00 0.00 0.00 97 1014.3
20260509035049 19 207 3.2 4.8 0.00 0.00 0.00 97 1014.1
20260509034548 19 209 4.8 4.8 0.00 0.00 0.00 96 1014.2
20260509034044 20 218 8.0 11.3 0.00 0.00 0.00 92 1014.6
20260509033542 20 225 6.4 9.7 0.00 0.00 0.00 90 1015.2
20260509033038 21 208 4.8 4.8 0.00 0.00 0.00 84 1015.3
20260509032536 21 218 3.2 3.2 0.00 0.00 0.00 80 1015.8
20260509032033 21 220 3.2 3.2 0.00 0.00 0.00 80 1015.3
20260509031530 21 191 0.0 0.0 0.00 0.00 0.00 80 1015.4
20260509031027 21 166 0.0 0.0 0.00 0.00 0.00 80 1015.2
20260509030526 21 121 0.0 0.0 0.00 0.00 0.00 80 1015.2
20260509030022 21 137 0.0 0.0 0.00 0.00 0.00 79 1015.3
20260509025518 21 148 0.0 0.0 0.00 0.00 0.00 79 1015.4
20260509025014 21 154 0.0 0.0 0.00 0.00 0.00 79 1015.3
20260509024509 21 91 0.0 1.6 0.00 0.00 0.00 79 1015.2
20260509024006 21 103 1.6 1.6 0.00 0.00 0.00 79 1015.0
20260509023504 21 68 0.0 0.0 0.00 0.00 0.00 79 1015.1
20260509023001 21 60 0.0 1.6 0.00 0.00 0.00 80 1014.9
20260509022457 21 65 1.6 3.2 0.00 0.00 0.00 80 1014.7
20260509021955 21 229 1.6 1.6 0.00 0.00 0.00 80 1014.6
20260509021452 21 172 0.0 0.0 0.00 0.00 0.00 80 1014.3
20260509020949 21 129 1.6 3.2 0.00 0.00 0.00 79 1014.1
20260509020447 21 196 3.2 3.2 0.00 0.00 0.00 79 1014.0
20260509015944 21 93 1.6 3.2 0.00 0.00 0.00 79 1014.1
20260509015443 21 188 0.0 0.0 0.00 0.00 0.00 78 1013.9
20260509014939 21 190 0.0 0.0 0.00 0.00 0.00 78 1014.1
20260509014436 21 197 1.6 3.2 0.00 0.00 0.00 78 1014.0
20260509013932 22 171 1.6 1.6 0.00 0.00 0.00 77 1014.1
20260509013429 22 207 1.6 1.6 0.00 0.00 0.00 77 1013.8
20260509012924 22 204 1.6 3.2 0.00 0.00 0.00 77 1013.7
20260509012421 22 201 1.6 3.2 0.00 0.00 0.00 76 1013.8
20260509011919 22 114 1.6 1.6 0.00 0.00 0.00 76 1013.8
20260509011416 22 210 3.2 3.2 0.00 0.00 0.00 76 1013.8
20260509010914 22 182 1.6 1.6 0.00 0.00 0.00 75 1013.8
20260509010411 22 194 3.2 4.8 0.00 0.00 0.00 75 1013.8
20260509005907 22 207 1.6 1.6 0.00 0.00 0.00 75 1013.7
20260509005406 22 190 1.6 1.6 0.00 0.00 0.00 74 1013.7
20260509004906 22 85 1.6 3.2 0.00 0.00 0.00 74 1013.7
20260509004402 22 193 0.0 0.0 0.00 0.00 0.00 73 1013.6
20260509003900 22 229 3.2 3.2 0.00 0.00 0.00 73 1013.5
20260509003358 22 234 1.6 3.2 0.00 0.00 0.00 73 1013.4
20260509002854 22 250 3.2 4.8 0.00 0.00 0.00 73 1013.3
20260509002352 22 207 3.2 4.8 0.00 0.00 0.00 73 1013.4
20260509001850 23 186 3.2 3.2 0.00 0.00 0.00 73 1013.4
20260509001345 23 161 1.6 1.6 0.00 0.00 0.00 72 1013.5
20260509000843 23 232 0.0 0.0 0.00 0.00 0.00 72 1013.4
20260509000341 23 225 3.2 4.8 0.00 0.00 0.00 72 1013.4
20260508235836 23 224 3.2 6.4 0.00 0.00 0.00 71 1013.6
20260508235334 23 240 8.0 11.3 0.00 0.00 0.00 71 1013.4
20260508234831 23 203 3.2 4.8 0.00 0.00 0.00 72 1013.5
20260508234327 23 195 1.6 3.2 0.00 0.00 0.00 71 1013.5
20260508233826 23 219 3.2 3.2 0.00 0.00 0.00 70 1013.5
20260508233325 24 208 6.4 11.3 0.00 0.00 0.00 71 1013.6
20260508232821 24 212 6.4 9.7 0.00 0.00 0.00 70 1013.7
20260508232317 24 226 8.0 9.7 0.00 0.00 0.00 70 1013.6
20260508231816 25 223 3.2 3.2 0.00 0.00 0.00 70 1013.6
20260508231312 24 226 3.2 3.2 0.00 0.00 0.00 70 1013.6
20260508230809 25 165 3.2 3.2 0.00 0.00 0.00 69 1013.6
20260508230305 25 168 4.8 4.8 0.00 0.00 0.00 69 1013.6
20260508225803 25 221 3.2 4.8 0.00 0.00 0.00 68 1013.6
20260508225259 25 189 3.2 4.8 0.00 0.00 0.00 68 1013.7
20260508224757 25 229 1.6 3.2 0.00 0.00 0.00 68 1013.9
20260508224254 25 218 4.8 6.4 0.00 0.00 0.00 68 1013.8
20260508223752 25 178 0.0 0.0 0.00 0.00 0.00 67 1013.9
20260508223249 25 214 3.2 3.2 0.00 0.00 0.00 67 1013.9
20260508222746 25 195 1.6 1.6 0.00 0.00 0.00 67 1013.6
20260508222244 25 213 4.8 6.4 0.00 0.00 0.00 67 1013.8
20260508221740 25 195 1.6 3.2 0.00 0.00 0.00 67 1013.8
20260508221236 25 149 3.2 4.8 0.00 0.00 0.00 65 1013.7
20260508220732 25 82 1.6 3.2 0.00 0.00 0.00 66 1013.7
20260508220229 25 215 4.8 4.8 0.00 0.00 0.00 66 1013.7
20260508215725 25 95 1.6 4.8 0.00 0.00 0.00 64 1013.6
20260508215222 25 93 1.6 3.2 0.00 0.00 0.00 65 1013.5
20260508214719 25 212 0.0 1.6 0.00 0.00 0.00 65 1013.5
20260508214217 25 59 3.2 3.2 0.00 0.00 0.00 65 1013.4
20260508213713 25 215 4.8 6.4 0.00 0.00 0.00 64 1013.4
20260508213209 25 124 3.2 4.8 0.00 0.00 0.00 65 1013.6
20260508212706 25 233 3.2 4.8 0.00 0.00 0.00 65 1013.6
20260508212203 25 187 6.4 12.9 0.00 0.00 0.00 64 1013.7
20260508211658 25 212 4.8 4.8 0.00 0.00 0.00 65 1014.2
20260508211154 25 187 8.0 9.7 0.00 0.00 0.00 64 1014.1
20260508210651 25 219 6.4 11.3 0.00 0.00 0.00 64 1014.4
20260508210149 25 216 3.2 6.4 0.00 0.00 0.00 63 1014.5
20260508205646 25 202 6.4 6.4 0.00 0.00 0.00 64 1014.7
20260508205142 25 221 6.4 9.7 0.00 0.00 0.00 62 1014.7
20260508204638 25 202 6.4 9.7 0.00 0.00 0.00 63 1014.7
20260508204134 25 133 6.4 9.7 0.00 0.00 0.00 63 1015.1
20260508203631 25 193 6.4 9.7 0.00 0.00 0.00 63 1015.0
20260508203127 25 170 1.6 3.2 0.00 0.00 0.00 63 1015.0
20260508202623 25 112 3.2 3.2 0.00 0.00 0.00 63 1015.1
20260508202120 25 172 6.4 6.4 0.00 0.00 0.00 62 1015.0
20260508201617 25 56 3.2 4.8 0.00 0.00 0.00 62 1015.2
20260508201114 25 158 6.4 9.7 0.00 0.00 0.00 61 1015.2
20260508200611 26 60 3.2 4.8 0.00 0.00 0.00 61 1015.4
20260508200107 26 220 4.8 4.8 0.00 0.00 0.00 58 1015.4
20260508195603 26 64 3.2 4.8 0.00 0.00 0.00 58 1015.5
20260508195100 26 352 3.2 3.2 0.00 0.00 0.00 57 1015.4
20260508194556 26 145 1.6 3.2 0.00 0.00 0.00 58 1015.8
20260508194054 26 160 3.2 4.8 0.00 0.00 0.00 59 1015.4
20260508193550 26 209 4.8 6.4 0.00 0.00 0.00 57 1015.7
20260508193047 26 196 6.4 6.4 0.00 0.00 0.00 58 1015.5
20260508192544 26 84 0.0 1.6 0.00 0.00 0.00 59 1015.7
20260508192041 26 214 6.4 9.7 0.00 0.00 0.00 59 1015.6
20260508191537 26 193 3.2 4.8 0.00 0.00 0.00 59 1015.8
20260508191034 26 230 3.2 4.8 0.00 0.00 0.00 57 1015.7
20260508190531 26 103 1.6 3.2 0.00 0.00 0.00 59 1015.7
20260508190028 26 36 3.2 4.8 0.00 0.00 0.00 58 1015.7
20260508185525 26 152 4.8 6.4 0.00 0.00 0.00 57 1015.8
20260508185023 25 102 3.2 3.2 0.00 0.00 0.00 59 1016.1
20260508184520 26 211 1.6 3.2 0.00 0.00 0.00 56 1016.0
20260508184017 25 315 0.0 1.6 0.00 0.00 0.00 57 1016.2
20260508183513 26 298 3.2 4.8 0.00 0.00 0.00 57 1016.1
20260508183009 26 241 1.6 1.6 0.00 0.00 0.00 56 1016.2
20260508182506 25 143 3.2 4.8 0.00 0.00 0.00 57 1016.4
20260508182002 25 251 3.2 3.2 0.00 0.00 0.00 60 1016.4
20260508181457 25 214 0.0 1.6 0.00 0.00 0.00 56 1016.7
20260508180955 26 234 3.2 4.8 0.00 0.00 0.00 57 1016.7
20260508180452 26 197 1.6 1.6 0.00 0.00 0.00 58 1016.6
20260508175948 25 207 3.2 3.2 0.00 0.00 0.00 61 1016.8
20260508175444 25 87 4.8 9.7 0.00 0.00 0.00 59 1017.0
20260508174942 25 239 0.0 1.6 0.00 0.00 0.00 59 1016.9
20260508174440 25 208 1.6 3.2 0.00 0.00 0.00 58 1017.0
20260508173937 25 78 3.2 4.8 0.00 0.00 0.00 58 1017.2
20260508173434 25 96 6.4 6.4 0.00 0.00 0.00 56 1017.2
20260508172929 25 137 1.6 3.2 0.00 0.00 0.00 58 1017.4
20260508172427 23 89 0.0 0.0 0.00 0.00 0.00 60 1017.5
20260508171923 23 128 4.8 6.4 0.00 0.00 0.00 62 1017.6
20260508171419 23 227 3.2 4.8 0.00 0.00 0.00 61 1018.0
20260508170916 23 189 4.8 4.8 0.00 0.00 0.00 63 1017.9
20260508170414 23 226 4.8 4.8 0.00 0.00 0.00 63 1017.9
20260508165910 23 213 1.6 1.6 0.00 0.00 0.00 62 1018.0
20260508165408 22 196 0.0 1.6 0.00 0.00 0.00 63 1018.3
20260508164904 22 218 3.2 4.8 0.00 0.00 0.00 67 1018.1
20260508164401 21 189 1.6 4.8 0.00 0.00 0.00 67 1018.3
20260508163858 21 212 0.0 1.6 0.00 0.00 0.00 71 1018.4
20260508163356 20 220 4.8 6.4 0.00 0.00 0.00 71 1018.5
20260508162851 20 190 3.2 4.8 0.00 0.00 0.00 71 1018.8
20260508162349 20 216 3.2 4.8 0.00 0.00 0.00 74 1018.7
20260508161846 20 129 3.2 3.2 0.00 0.00 0.00 74 1019.1
20260508161343 20 213 1.6 3.2 0.00 0.00 0.00 76 1018.9
20260508160840 20 177 3.2 4.8 0.00 0.00 0.00 74 1019.1
20260508160339 19 131 1.6 1.6 0.00 0.00 0.00 76 1019.0
20260508155835 19 223 3.2 3.2 0.00 0.00 0.00 76 1019.0
20260508155332 19 189 4.8 4.8 0.00 0.00 0.00 76 1019.0
20260508154829 19 187 3.2 6.4 0.00 0.00 0.00 79 1019.1
20260508154327 18 133 1.6 1.6 0.00 0.00 0.00 81 1019.5
20260508153823 19 166 1.6 1.6 0.00 0.00 0.00 79 1019.3
20260508153321 18 196 0.0 0.0 0.00 0.00 0.00 80 1019.3
20260508152816 19 159 3.2 4.8 0.00 0.00 0.00 79 1019.1
20260508152313 19 217 1.6 3.2 0.00 0.00 0.00 80 1019.3
20260508151809 18 192 1.6 3.2 0.00 0.00 0.00 81 1019.2
20260508151306 18 198 3.2 3.2 0.00 0.00 0.00 81 1019.3
20260508150802 17 221 1.6 1.6 0.00 0.00 0.00 83 1019.4
20260508150259 17 163 0.0 0.0 0.00 0.00 0.00 89 1019.4
20260508145755 16 176 0.0 0.0 0.00 0.00 0.00 95 1019.1
20260508145251 16 144 0.0 1.6 0.00 0.00 0.00 98 1019.4
20260508144748 16 124 0.0 0.0 0.00 0.00 0.00 99 1019.6
20260508144247 16 212 0.0 1.6 0.00 0.00 0.00 99 1019.7
20260508143744 16 135 0.0 1.6 0.00 0.00 0.00 99 1019.7
20260508143241 16 135 3.2 3.2 0.00 0.00 0.00 99 1019.6
20260508142737 16 29 4.8 6.4 0.00 0.00 0.00 99 1019.5
20260508142234 16 124 0.0 1.6 0.00 0.00 0.00 99 1019.5
20260508141730 16 102 1.6 1.6 0.00 0.00 0.00 99 1019.7
20260508141228 16 195 0.0 0.0 0.00 0.00 0.00 99 1019.8
20260508140725 16 289 0.0 0.0 0.00 0.00 0.00 99 1019.7
20260508140222 16 198 0.0 0.0 0.00 0.00 0.00 99 1019.6
20260508135718 16 201 0.0 0.0 0.00 0.00 0.00 99 1019.8
20260508135214 16 43 0.0 0.0 0.00 0.00 0.00 99 1019.7
20260508134710 16 133 0.0 0.0 0.00 0.00 0.00 99 1019.7
20260508134207 16 159 0.0 0.0 0.00 0.00 0.00 99 1019.7
20260508133704 16 169 0.0 0.0 0.00 0.00 0.00 99 1020.1
20260508133202 16 116 0.0 0.0 0.00 0.00 0.00 99 1020.1
20260508132659 16 264 0.0 0.0 0.00 0.00 0.00 99 1019.7
20260508132156 15 201 1.6 1.6 0.00 0.00 0.00 99 1019.6
20260508131652 16 209 1.6 1.6 0.00 0.00 0.00 99 1019.5
20260508131148 16 213 1.6 1.6 0.00 0.00 0.00 99 1019.3
20260508130645 15 102 0.0 0.0 0.00 0.00 0.00 99 1019.2
20260508130142 15 196 0.0 0.0 0.00 0.00 0.00 99 1019.7
20260508125638 15 191 0.0 0.0 0.00 0.00 0.00 99 1019.5
20260508125135 15 125 0.0 0.0 0.00 0.00 0.00 99 1019.8
20260508124633 15 121 1.6 1.6 0.00 0.00 0.00 99 1019.9
20260508124129 15 235 0.0 0.0 0.00 0.00 0.00 99 1020.4
20260508123628 15 214 0.0 0.0 0.00 0.00 0.00 99 1020.0
20260508123125 15 108 0.0 0.0 0.00 0.00 0.00 99 1020.1
20260508122621 15 120 0.0 0.0 0.00 0.00 0.00 99 1019.9
20260508122119 14 190 0.0 0.0 0.00 0.00 0.00 99 1019.9
20260508121617 15 148 0.0 0.0 0.00 0.00 0.00 99 1019.9
20260508121115 15 111 0.0 0.0 0.00 0.00 0.00 99 1020.2
20260508120611 14 2 0.0 0.0 0.00 0.00 0.00 99 1019.9
20260508120110 14 186 0.0 0.0 0.00 0.00 0.00 99 1019.8
20260508115607 14 103 1.6 1.6 0.00 0.00 0.00 99 1019.8
20260508115104 14 241 0.0 0.0 0.00 0.00 0.00 99 1020.2
20260508114601 14 190 0.0 0.0 0.00 0.00 0.00 99 1019.5
20260508114056 14 198 0.0 0.0 0.00 0.00 0.00 99 1019.4
20260508113554 14 186 3.2 4.8 0.00 0.00 0.00 99 1019.6
20260508113052 13 163 3.2 3.2 0.00 0.00 0.00 98 1019.8
20260508112548 13 117 1.6 1.6 0.00 0.00 0.00 98 1019.3
20260508112045 14 154 3.2 4.8 0.00 0.00 0.00 98 1019.2
20260508111542 15 186 1.6 3.2 0.00 0.00 0.00 98 1019.4
20260508111039 15 188 3.2 3.2 0.00 0.00 0.00 98 1019.5
20260508110537 15 216 1.6 1.6 0.00 0.00 0.00 98 1019.8
20260508110033 15 179 1.6 1.6 0.00 0.00 0.00 98 1019.7
20260508105528 15 191 0.0 0.0 0.00 0.00 0.00 97 1020.0
20260508105025 15 194 1.6 1.6 0.00 0.00 0.00 95 1020.0
20260508104523 15 211 0.0 0.0 0.00 0.00 0.00 93 1020.5
20260508104019 15 227 0.0 1.6 0.00 0.00 0.00 93 1020.1
20260508103516 15 197 1.6 1.6 0.00 0.00 0.00 92 1019.8
20260508103013 16 199 0.0 0.0 0.00 0.00 0.00 90 1019.4
20260508102511 16 292 0.0 1.6 0.00 0.00 0.00 89 1020.3
20260508102009 16 166 3.2 4.8 0.00 0.00 0.00 89 1020.1
20260508101506 15 353 1.6 1.6 0.00 0.00 0.00 89 1018.5
20260508101003 15 109 0.0 1.6 0.00 0.00 0.00 88 1018.7
20260508100501 15 175 0.0 0.0 0.00 0.00 0.00 88 1018.4
20260508095956 15 196 0.0 0.0 0.00 0.00 0.00 88 1018.7
20260508095455 15 179 0.0 1.6 0.00 0.00 0.00 88 1019.0
20260508094951 15 245 1.6 1.6 0.00 0.00 0.00 88 1018.7
20260508094448 15 170 0.0 0.0 0.00 0.00 0.00 88 1018.4
20260508093945 15 214 0.0 0.0 0.00 0.00 0.00 88 1018.5
20260508093442 15 194 0.0 1.6 0.00 0.00 0.00 88 1018.9
20260508092940 15 213 1.6 1.6 0.00 0.00 0.00 88 1018.7
20260508092437 15 171 0.0 0.0 0.00 0.00 0.00 88 1018.8
20260508091936 15 196 1.6 3.2 0.00 0.00 0.00 88 1018.9
20260508091433 15 239 0.0 0.0 0.00 0.00 0.00 89 1019.0
20260508090930 15 236 0.0 1.6 0.00 0.00 0.00 89 1018.9
20260508090429 15 112 1.6 1.6 0.00 0.00 0.00 89 1019.1
20260508085924 15 143 1.6 1.6 0.00 0.00 0.00 88 1019.5
20260508085421 15 276 1.6 1.6 0.00 0.00 0.00 87 1019.6
20260508084918 16 189 0.0 0.0 0.00 0.00 0.00 86 1019.6
20260508084414 16 195 0.0 0.0 0.00 0.00 0.00 86 1019.6
20260508083912 16 245 3.2 3.2 0.00 0.00 0.00 85 1019.5
20260508083410 16 186 0.0 0.0 0.00 0.00 0.00 84 1019.3
20260508082908 16 148 0.0 0.0 0.00 0.00 0.00 84 1019.3
20260508082406 16 213 1.6 3.2 0.00 0.00 0.00 84 1019.7
20260508081903 16 170 1.6 1.6 0.00 0.00 0.00 84 1019.0
20260508081400 16 181 0.0 0.0 0.00 0.00 0.00 84 1019.5
20260508080856 16 69 0.0 0.0 0.00 0.00 0.00 83 1019.6
20260508080355 16 181 0.0 0.0 0.00 0.00 0.00 83 1020.0
20260508075851 16 172 0.0 0.0 0.00 0.00 0.00 83 1020.3
20260508075348 16 198 0.0 0.0 0.00 0.00 0.00 83 1020.7
20260508074846 16 198 0.0 0.0 0.00 0.00 0.00 85 1020.5
20260508074343 16 201 0.0 0.0 0.00 0.00 0.00 85 1020.5
20260508073840 16 216 0.0 0.0 0.00 0.00 0.00 85 1020.5
20260508073338 16 232 0.0 0.0 0.00 0.00 0.00 86 1020.5
20260508072834 16 196 0.0 0.0 0.00 0.00 0.00 86 1019.9
20260508072331 16 205 0.0 0.0 0.00 0.00 0.00 86 1019.9
20260508071828 15 155 0.0 0.0 0.00 0.00 0.00 86 1020.1
20260508071326 15 186 0.0 0.0 0.00 0.00 0.00 86 1020.0
20260508070823 15 185 0.0 0.0 0.00 0.00 0.00 86 1020.1
20260508070322 15 192 0.0 0.0 0.00 0.00 0.00 86 1020.2
20260508065819 15 110 0.0 0.0 0.00 0.00 0.00 85 1020.3
20260508065317 15 96 0.0 0.0 0.00 0.00 0.00 85 1020.7
20260508064814 15 86 0.0 0.0 0.00 0.00 0.00 84 1020.7
20260508064312 15 191 0.0 0.0 0.00 0.00 0.00 83 1020.8
20260508063809 15 213 0.0 0.0 0.00 0.00 0.00 83 1021.0
20260508063307 15 223 0.0 0.0 0.00 0.00 0.00 84 1020.8
20260508062804 15 189 0.0 0.0 0.00 0.00 0.00 84 1020.9
20260508062305 15 164 0.0 0.0 0.00 0.00 0.00 84 1021.0
20260508061758 15 182 0.0 0.0 0.00 0.00 0.00 84 1020.7
20260508061255 15 213 0.0 0.0 0.00 0.00 0.00 83 1021.0
20260508060752 15 128 0.0 0.0 0.00 0.00 0.00 83 1020.7
20260508060250 15 91 0.0 0.0 0.00 0.00 0.00 82 1020.6
20260508055745 15 191 0.0 0.0 0.00 0.00 0.00 82 1020.8
20260508055242 16 143 0.0 0.0 0.00 0.00 0.00 81 1020.5
20260508054739 16 93 0.0 0.0 0.00 0.00 0.00 81 1020.5
20260508054237 16 118 0.0 0.0 0.00 0.00 0.00 80 1020.6